Year,Month,Day,Hour,Minute,Value (Times are PST for insolation in W/m^2)
2021,04,25,00,00,0.00
2021,04,25,00,01,0.00
2021,04,25,00,02,0.00
2021,04,25,00,03,0.00
2021,04,25,00,04,0.00
2021,04,25,00,05,0.00
2021,04,25,00,06,0.00
2021,04,25,00,07,0.00
2021,04,25,00,08,0.00
2021,04,25,00,09,0.00
2021,04,25,00,10,0.00
2021,04,25,00,11,0.00
2021,04,25,00,12,0.00
2021,04,25,00,13,0.00
2021,04,25,00,14,0.00
2021,04,25,00,15,0.00
2021,04,25,00,16,0.00
2021,04,25,00,17,0.00
2021,04,25,00,18,0.00
2021,04,25,00,19,0.00
2021,04,25,00,20,0.00
2021,04,25,00,21,0.00
2021,04,25,00,22,0.00
2021,04,25,00,23,0.00
2021,04,25,00,24,0.00
2021,04,25,00,25,0.00
2021,04,25,00,26,0.00
2021,04,25,00,27,0.00
2021,04,25,00,28,0.00
2021,04,25,00,29,0.00
2021,04,25,00,30,0.00
2021,04,25,00,31,0.00
2021,04,25,00,32,0.00
2021,04,25,00,33,0.00
2021,04,25,00,34,0.00
2021,04,25,00,35,0.00
2021,04,25,00,36,0.00
2021,04,25,00,37,0.00
2021,04,25,00,38,0.00
2021,04,25,00,39,0.00
2021,04,25,00,40,0.00
2021,04,25,00,41,0.00
2021,04,25,00,42,0.00
2021,04,25,00,43,0.00
2021,04,25,00,44,0.00
2021,04,25,00,45,0.00
2021,04,25,00,46,0.00
2021,04,25,00,47,0.00
2021,04,25,00,48,0.00
2021,04,25,00,49,0.00
2021,04,25,00,50,0.00
2021,04,25,00,51,0.00
2021,04,25,00,52,0.00
2021,04,25,00,53,0.00
2021,04,25,00,54,0.00
2021,04,25,00,55,0.00
2021,04,25,00,56,0.00
2021,04,25,00,57,0.00
2021,04,25,00,58,0.00
2021,04,25,00,59,0.00
2021,04,25,01,00,0.00
2021,04,25,01,01,0.00
2021,04,25,01,02,0.00
2021,04,25,01,03,0.00
2021,04,25,01,04,0.00
2021,04,25,01,05,0.00
2021,04,25,01,06,0.00
2021,04,25,01,07,0.00
2021,04,25,01,08,0.00
2021,04,25,01,09,0.00
2021,04,25,01,10,0.00
2021,04,25,01,11,0.00
2021,04,25,01,12,0.00
2021,04,25,01,13,0.00
2021,04,25,01,14,0.00
2021,04,25,01,15,0.00
2021,04,25,01,16,0.00
2021,04,25,01,17,0.00
2021,04,25,01,18,0.00
2021,04,25,01,19,0.00
2021,04,25,01,20,0.00
2021,04,25,01,21,0.00
2021,04,25,01,22,0.00
2021,04,25,01,23,0.00
2021,04,25,01,24,0.00
2021,04,25,01,25,0.00
2021,04,25,01,26,0.00
2021,04,25,01,27,0.00
2021,04,25,01,28,0.00
2021,04,25,01,29,0.00
2021,04,25,01,30,0.00
2021,04,25,01,31,0.00
2021,04,25,01,32,0.00
2021,04,25,01,33,0.00
2021,04,25,01,34,0.00
2021,04,25,01,35,0.00
2021,04,25,01,36,0.00
2021,04,25,01,37,0.00
2021,04,25,01,38,0.00
2021,04,25,01,39,0.00
2021,04,25,01,40,0.00
2021,04,25,01,41,0.00
2021,04,25,01,42,0.00
2021,04,25,01,43,0.00
2021,04,25,01,44,0.00
2021,04,25,01,45,0.00
2021,04,25,01,46,0.00
2021,04,25,01,47,0.00
2021,04,25,01,48,0.00
2021,04,25,01,49,0.00
2021,04,25,01,50,0.00
2021,04,25,01,51,0.00
2021,04,25,01,52,0.00
2021,04,25,01,53,0.00
2021,04,25,01,54,0.00
2021,04,25,01,55,0.00
2021,04,25,01,56,0.00
2021,04,25,01,57,0.00
2021,04,25,01,58,0.00
2021,04,25,01,59,0.00
2021,04,25,02,00,0.00
2021,04,25,02,01,0.00
2021,04,25,02,02,0.00
2021,04,25,02,03,0.00
2021,04,25,02,04,0.00
2021,04,25,02,05,0.00
2021,04,25,02,06,0.00
2021,04,25,02,07,0.00
2021,04,25,02,08,0.00
2021,04,25,02,09,0.00
2021,04,25,02,10,0.00
2021,04,25,02,11,0.00
2021,04,25,02,12,0.00
2021,04,25,02,13,0.00
2021,04,25,02,14,0.00
2021,04,25,02,15,0.00
2021,04,25,02,16,0.00
2021,04,25,02,17,0.00
2021,04,25,02,18,0.00
2021,04,25,02,19,0.00
2021,04,25,02,20,0.00
2021,04,25,02,21,0.00
2021,04,25,02,22,0.00
2021,04,25,02,23,0.00
2021,04,25,02,24,0.00
2021,04,25,02,25,0.00
2021,04,25,02,26,0.00
2021,04,25,02,27,0.00
2021,04,25,02,28,0.00
2021,04,25,02,29,0.00
2021,04,25,02,30,0.00
2021,04,25,02,31,0.00
2021,04,25,02,32,0.00
2021,04,25,02,33,0.00
2021,04,25,02,34,0.00
2021,04,25,02,35,0.00
2021,04,25,02,36,0.00
2021,04,25,02,37,0.00
2021,04,25,02,38,0.00
2021,04,25,02,39,0.00
2021,04,25,02,40,0.00
2021,04,25,02,41,0.00
2021,04,25,02,42,0.00
2021,04,25,02,43,0.00
2021,04,25,02,44,0.00
2021,04,25,02,45,0.00
2021,04,25,02,46,0.00
2021,04,25,02,47,0.00
2021,04,25,02,48,0.00
2021,04,25,02,49,0.00
2021,04,25,02,50,0.00
2021,04,25,02,51,0.00
2021,04,25,02,52,0.00
2021,04,25,02,53,0.00
2021,04,25,02,54,0.00
2021,04,25,02,55,0.00
2021,04,25,02,56,0.00
2021,04,25,02,57,0.00
2021,04,25,02,58,0.00
2021,04,25,02,59,0.00
2021,04,25,03,00,0.00
2021,04,25,03,01,0.00
2021,04,25,03,02,0.00
2021,04,25,03,03,0.00
2021,04,25,03,04,0.00
2021,04,25,03,05,0.00
2021,04,25,03,06,0.00
2021,04,25,03,07,0.00
2021,04,25,03,08,0.00
2021,04,25,03,09,0.00
2021,04,25,03,10,0.00
2021,04,25,03,11,0.00
2021,04,25,03,12,0.00
2021,04,25,03,13,0.00
2021,04,25,03,14,0.00
2021,04,25,03,15,0.00
2021,04,25,03,16,0.00
2021,04,25,03,17,0.00
2021,04,25,03,18,0.00
2021,04,25,03,19,0.00
2021,04,25,03,20,0.00
2021,04,25,03,21,0.00
2021,04,25,03,22,0.00
2021,04,25,03,23,0.00
2021,04,25,03,24,0.00
2021,04,25,03,25,0.00
2021,04,25,03,26,0.00
2021,04,25,03,27,0.00
2021,04,25,03,28,0.00
2021,04,25,03,29,0.00
2021,04,25,03,30,0.00
2021,04,25,03,31,0.00
2021,04,25,03,32,0.00
2021,04,25,03,33,0.00
2021,04,25,03,34,0.00
2021,04,25,03,35,0.00
2021,04,25,03,36,0.00
2021,04,25,03,37,0.00
2021,04,25,03,38,0.00
2021,04,25,03,39,0.00
2021,04,25,03,40,0.00
2021,04,25,03,41,0.00
2021,04,25,03,42,0.00
2021,04,25,03,43,0.00
2021,04,25,03,44,0.00
2021,04,25,03,45,0.00
2021,04,25,03,46,0.00
2021,04,25,03,47,0.00
2021,04,25,03,48,0.00
2021,04,25,03,49,0.00
2021,04,25,03,50,0.00
2021,04,25,03,51,0.00
2021,04,25,03,52,0.00
2021,04,25,03,53,0.00
2021,04,25,03,54,0.00
2021,04,25,03,55,0.00
2021,04,25,03,56,0.00
2021,04,25,03,57,0.00
2021,04,25,03,58,0.00
2021,04,25,03,59,0.00
2021,04,25,04,00,0.00
2021,04,25,04,01,0.00
2021,04,25,04,02,0.00
2021,04,25,04,03,0.00
2021,04,25,04,04,0.00
2021,04,25,04,05,0.00
2021,04,25,04,06,0.00
2021,04,25,04,07,0.00
2021,04,25,04,08,0.00
2021,04,25,04,09,0.00
2021,04,25,04,10,0.00
2021,04,25,04,11,0.00
2021,04,25,04,12,0.00
2021,04,25,04,13,0.00
2021,04,25,04,14,0.00
2021,04,25,04,15,0.00
2021,04,25,04,16,0.00
2021,04,25,04,17,0.00
2021,04,25,04,18,0.00
2021,04,25,04,19,0.00
2021,04,25,04,20,0.00
2021,04,25,04,21,0.00
2021,04,25,04,22,0.00
2021,04,25,04,23,0.00
2021,04,25,04,24,0.00
2021,04,25,04,25,0.00
2021,04,25,04,26,0.00
2021,04,25,04,27,0.00
2021,04,25,04,28,0.00
2021,04,25,04,29,0.00
2021,04,25,04,30,0.00
2021,04,25,04,31,0.00
2021,04,25,04,32,0.00
2021,04,25,04,33,0.00
2021,04,25,04,34,0.00
2021,04,25,04,35,0.00
2021,04,25,04,36,0.00
2021,04,25,04,37,0.00
2021,04,25,04,38,0.00
2021,04,25,04,39,0.00
2021,04,25,04,40,0.00
2021,04,25,04,41,0.00
2021,04,25,04,42,0.00
2021,04,25,04,43,0.00
2021,04,25,04,44,0.00
2021,04,25,04,45,0.00
2021,04,25,04,46,0.00
2021,04,25,04,47,0.00
2021,04,25,04,48,0.00
2021,04,25,04,49,0.00
2021,04,25,04,50,0.00
2021,04,25,04,51,0.00
2021,04,25,04,52,0.00
2021,04,25,04,53,0.00
2021,04,25,04,54,0.00
2021,04,25,04,55,0.00
2021,04,25,04,56,0.00
2021,04,25,04,57,0.00
2021,04,25,04,58,0.00
2021,04,25,04,59,0.00
2021,04,25,05,00,0.00
2021,04,25,05,01,0.00
2021,04,25,05,02,0.00
2021,04,25,05,03,0.00
2021,04,25,05,04,0.00
2021,04,25,05,05,0.00
2021,04,25,05,06,0.00
2021,04,25,05,07,0.00
2021,04,25,05,08,0.00
2021,04,25,05,09,0.00
2021,04,25,05,10,0.00
2021,04,25,05,11,0.00
2021,04,25,05,12,0.00
2021,04,25,05,13,0.00
2021,04,25,05,14,0.00
2021,04,25,05,15,0.00
2021,04,25,05,16,0.00
2021,04,25,05,17,0.00
2021,04,25,05,18,0.00
2021,04,25,05,19,0.00
2021,04,25,05,20,0.00
2021,04,25,05,21,0.00
2021,04,25,05,22,0.00
2021,04,25,05,23,0.00
2021,04,25,05,24,0.00
2021,04,25,05,25,0.00
2021,04,25,05,26,0.00
2021,04,25,05,27,0.00
2021,04,25,05,28,0.00
2021,04,25,05,29,0.00
2021,04,25,05,30,0.00
2021,04,25,05,31,0.00
2021,04,25,05,32,0.00
2021,04,25,05,33,0.00
2021,04,25,05,34,0.00
2021,04,25,05,35,0.00
2021,04,25,05,36,0.00
2021,04,25,05,37,0.00
2021,04,25,05,38,0.00
2021,04,25,05,39,0.00
2021,04,25,05,40,0.00
2021,04,25,05,41,0.00
2021,04,25,05,42,0.00
2021,04,25,05,43,0.00
2021,04,25,05,44,0.00
2021,04,25,05,45,0.00
2021,04,25,05,46,0.00
2021,04,25,05,47,0.00
2021,04,25,05,48,0.00
2021,04,25,05,49,0.00
2021,04,25,05,50,0.00
2021,04,25,05,51,0.00
2021,04,25,05,52,0.00
2021,04,25,05,53,0.00
2021,04,25,05,54,0.00
2021,04,25,05,55,0.00
2021,04,25,05,56,0.00
2021,04,25,05,57,0.00
2021,04,25,05,58,0.00
2021,04,25,05,59,0.00
2021,04,25,06,00,0.00
2021,04,25,06,01,0.00
2021,04,25,06,02,0.00
2021,04,25,06,03,0.00
2021,04,25,06,04,0.00
2021,04,25,06,05,0.00
2021,04,25,06,06,0.00
2021,04,25,06,07,0.00
2021,04,25,06,08,0.00
2021,04,25,06,09,0.00
2021,04,25,06,10,0.00
2021,04,25,06,11,0.00
2021,04,25,06,12,0.00
2021,04,25,06,13,0.00
2021,04,25,06,14,0.00
2021,04,25,06,15,0.00
2021,04,25,06,16,2.80
2021,04,25,06,17,5.00
2021,04,25,06,18,5.00
2021,04,25,06,19,5.00
2021,04,25,06,20,5.00
2021,04,25,06,21,5.00
2021,04,25,06,22,5.00
2021,04,25,06,23,5.00
2021,04,25,06,24,5.00
2021,04,25,06,25,5.00
2021,04,25,06,26,5.00
2021,04,25,06,27,5.00
2021,04,25,06,28,5.10
2021,04,25,06,29,7.00
2021,04,25,06,30,7.00
2021,04,25,06,31,7.00
2021,04,25,06,32,7.00
2021,04,25,06,33,7.00
2021,04,25,06,34,7.00
2021,04,25,06,35,7.70
2021,04,25,06,36,9.00
2021,04,25,06,37,9.90
2021,04,25,06,38,11.00
2021,04,25,06,39,11.50
2021,04,25,06,40,12.00
2021,04,25,06,41,13.20
2021,04,25,06,42,14.00
2021,04,25,06,43,14.00
2021,04,25,06,44,14.00
2021,04,25,06,45,14.00
2021,04,25,06,46,14.00
2021,04,25,06,47,14.00
2021,04,25,06,48,14.00
2021,04,25,06,49,14.00
2021,04,25,06,50,14.00
2021,04,25,06,51,16.10
2021,04,25,06,52,18.00
2021,04,25,06,53,18.00
2021,04,25,06,54,18.00
2021,04,25,06,55,18.00
2021,04,25,06,56,18.30
2021,04,25,06,57,19.00
2021,04,25,06,58,19.70
2021,04,25,06,59,21.00
2021,04,25,07,00,21.00
2021,04,25,07,01,21.00
2021,04,25,07,02,21.00
2021,04,25,07,03,22.20
2021,04,25,07,04,24.30
2021,04,25,07,05,25.00
2021,04,25,07,06,25.70
2021,04,25,07,07,26.00
2021,04,25,07,08,26.00
2021,04,25,07,09,26.00
2021,04,25,07,10,27.70
2021,04,25,07,11,28.00
2021,04,25,07,12,29.80
2021,04,25,07,13,31.90
2021,04,25,07,14,33.10
2021,04,25,07,15,35.00
2021,04,25,07,16,35.00
2021,04,25,07,17,35.80
2021,04,25,07,18,39.20
2021,04,25,07,19,40.50
2021,04,25,07,20,42.60
2021,04,25,07,21,44.00
2021,04,25,07,22,44.70
2021,04,25,07,23,46.00
2021,04,25,07,24,46.00
2021,04,25,07,25,46.50
2021,04,25,07,26,48.20
2021,04,25,07,27,50.20
2021,04,25,07,28,52.30
2021,04,25,07,29,53.70
2021,04,25,07,30,55.40
2021,04,25,07,31,59.00
2021,04,25,07,32,61.60
2021,04,25,07,33,64.70
2021,04,25,07,34,68.60
2021,04,25,07,35,71.80
2021,04,25,07,36,75.80
2021,04,25,07,37,76.20
2021,04,25,07,38,79.20
2021,04,25,07,39,81.30
2021,04,25,07,40,83.00
2021,04,25,07,41,83.20
2021,04,25,07,42,84.00
2021,04,25,07,43,84.60
2021,04,25,07,44,86.70
2021,04,25,07,45,88.80
2021,04,25,07,46,90.00
2021,04,25,07,47,90.00
2021,04,25,07,48,90.60
2021,04,25,07,49,91.00
2021,04,25,07,50,93.20
2021,04,25,07,51,96.20
2021,04,25,07,52,97.70
2021,04,25,07,53,98.00
2021,04,25,07,54,98.00
2021,04,25,07,55,98.00
2021,04,25,07,56,98.00
2021,04,25,07,57,98.00
2021,04,25,07,58,98.00
2021,04,25,07,59,100.00
2021,04,25,08,00,100.00
2021,04,25,08,01,100.00
2021,04,25,08,02,100.60
2021,04,25,08,03,104.20
2021,04,25,08,04,105.00
2021,04,25,08,05,104.70
2021,04,25,08,06,103.40
2021,04,25,08,07,102.70
2021,04,25,08,08,103.20
2021,04,25,08,09,102.00
2021,04,25,08,10,101.10
2021,04,25,08,11,100.00
2021,04,25,08,12,101.20
2021,04,25,08,13,103.80
2021,04,25,08,14,108.90
2021,04,25,08,15,114.20
2021,04,25,08,16,118.80
2021,04,25,08,17,120.80
2021,04,25,08,18,122.60
2021,04,25,08,19,123.00
2021,04,25,08,20,123.00
2021,04,25,08,21,124.90
2021,04,25,08,22,128.00
2021,04,25,08,23,130.00
2021,04,25,08,24,130.20
2021,04,25,08,25,132.30
2021,04,25,08,26,134.00
2021,04,25,08,27,134.00
2021,04,25,08,28,135.80
2021,04,25,08,29,141.00
2021,04,25,08,30,140.30
2021,04,25,08,31,139.80
2021,04,25,08,32,143.10
2021,04,25,08,33,148.20
2021,04,25,08,34,153.50
2021,04,25,08,35,159.30
2021,04,25,08,36,166.90
2021,04,25,08,37,175.20
2021,04,25,08,38,178.00
2021,04,25,08,39,182.90
2021,04,25,08,40,187.40
2021,04,25,08,41,191.20
2021,04,25,08,42,192.80
2021,04,25,08,43,196.40
2021,04,25,08,44,198.80
2021,04,25,08,45,199.90
2021,04,25,08,46,198.90
2021,04,25,08,47,197.20
2021,04,25,08,48,199.40
2021,04,25,08,49,202.30
2021,04,25,08,50,203.20
2021,04,25,08,51,199.80
2021,04,25,08,52,199.90
2021,04,25,08,53,202.00
2021,04,25,08,54,205.80
2021,04,25,08,55,211.00
2021,04,25,08,56,208.60
2021,04,25,08,57,203.00
2021,04,25,08,58,196.10
2021,04,25,08,59,188.20
2021,04,25,09,00,178.40
2021,04,25,09,01,169.30
2021,04,25,09,02,163.50
2021,04,25,09,03,160.40
2021,04,25,09,04,161.60
2021,04,25,09,05,162.90
2021,04,25,09,06,168.40
2021,04,25,09,07,171.80
2021,04,25,09,08,174.00
2021,04,25,09,09,176.00
2021,04,25,09,10,176.00
2021,04,25,09,11,175.70
2021,04,25,09,12,174.00
2021,04,25,09,13,174.00
2021,04,25,09,14,174.00
2021,04,25,09,15,175.20
2021,04,25,09,16,178.00
2021,04,25,09,17,178.40
2021,04,25,09,18,179.80
2021,04,25,09,19,179.60
2021,04,25,09,20,174.70
2021,04,25,09,21,170.40
2021,04,25,09,22,167.70
2021,04,25,09,23,165.70
2021,04,25,09,24,165.00
2021,04,25,09,25,165.00
2021,04,25,09,26,165.00
2021,04,25,09,27,165.00
2021,04,25,09,28,168.40
2021,04,25,09,29,170.80
2021,04,25,09,30,171.90
2021,04,25,09,31,175.80
2021,04,25,09,32,176.10
2021,04,25,09,33,178.00
2021,04,25,09,34,178.10
2021,04,25,09,35,179.00
2021,04,25,09,36,179.50
2021,04,25,09,37,182.00
2021,04,25,09,38,186.50
2021,04,25,09,39,191.00
2021,04,25,09,40,193.80
2021,04,25,09,41,195.90
2021,04,25,09,42,197.90
2021,04,25,09,43,199.00
2021,04,25,09,44,199.00
2021,04,25,09,45,199.00
2021,04,25,09,46,199.00
2021,04,25,09,47,199.00
2021,04,25,09,48,196.00
2021,04,25,09,49,191.10
2021,04,25,09,50,184.40
2021,04,25,09,51,177.10
2021,04,25,09,52,172.40
2021,04,25,09,53,172.00
2021,04,25,09,54,165.40
2021,04,25,09,55,161.90
2021,04,25,09,56,160.00
2021,04,25,09,57,160.00
2021,04,25,09,58,160.00
2021,04,25,09,59,160.40
2021,04,25,10,00,162.20
2021,04,25,10,01,163.70
2021,04,25,10,02,165.00
2021,04,25,10,03,165.00
2021,04,25,10,04,167.40
2021,04,25,10,05,171.40
2021,04,25,10,06,173.00
2021,04,25,10,07,175.10
2021,04,25,10,08,177.20
2021,04,25,10,09,178.00
2021,04,25,10,10,178.70
2021,04,25,10,11,179.00
2021,04,25,10,12,180.50
2021,04,25,10,13,179.40
2021,04,25,10,14,178.20
2021,04,25,10,15,176.30
2021,04,25,10,16,176.00
2021,04,25,10,17,169.40
2021,04,25,10,18,162.80
2021,04,25,10,19,157.50
2021,04,25,10,20,152.30
2021,04,25,10,21,145.40
2021,04,25,10,22,141.80
2021,04,25,10,23,141.30
2021,04,25,10,24,143.40
2021,04,25,10,25,146.60
2021,04,25,10,26,148.40
2021,04,25,10,27,149.80
2021,04,25,10,28,150.10
2021,04,25,10,29,148.50
2021,04,25,10,30,146.90
2021,04,25,10,31,146.00
2021,04,25,10,32,146.00
2021,04,25,10,33,143.40
2021,04,25,10,34,142.00
2021,04,25,10,35,139.80
2021,04,25,10,36,139.00
2021,04,25,10,37,135.60
2021,04,25,10,38,134.10
2021,04,25,10,39,132.20
2021,04,25,10,40,132.00
2021,04,25,10,41,132.00
2021,04,25,10,42,132.00
2021,04,25,10,43,132.30
2021,04,25,10,44,134.00
2021,04,25,10,45,134.00
2021,04,25,10,46,134.30
2021,04,25,10,47,135.60
2021,04,25,10,48,138.80
2021,04,25,10,49,142.80
2021,04,25,10,50,144.80
2021,04,25,10,51,146.90
2021,04,25,10,52,148.00
2021,04,25,10,53,148.60
2021,04,25,10,54,147.20
2021,04,25,10,55,144.70
2021,04,25,10,56,140.50
2021,04,25,10,57,133.80
2021,04,25,10,58,128.10
2021,04,25,10,59,123.80
2021,04,25,11,00,121.30
2021,04,25,11,01,121.00
2021,04,25,11,02,120.10
2021,04,25,11,03,120.00
2021,04,25,11,04,121.00
2021,04,25,11,05,122.10
2021,04,25,11,06,132.80
2021,04,25,11,07,137.80
2021,04,25,11,08,143.20
2021,04,25,11,09,149.20
2021,04,25,11,10,153.90
2021,04,25,11,11,157.40
2021,04,25,11,12,161.20
2021,04,25,11,13,163.80
2021,04,25,11,14,166.80
2021,04,25,11,15,171.80
2021,04,25,11,16,176.30
2021,04,25,11,17,181.00
2021,04,25,11,18,186.00
2021,04,25,11,19,191.30
2021,04,25,11,20,198.20
2021,04,25,11,21,200.00
2021,04,25,11,22,207.20
2021,04,25,11,23,212.40
2021,04,25,11,24,215.60
2021,04,25,11,25,217.80
2021,04,25,11,26,219.90
2021,04,25,11,27,221.20
2021,04,25,11,28,225.40
2021,04,25,11,29,229.30
2021,04,25,11,30,232.30
2021,04,25,11,31,235.00
2021,04,25,11,32,240.20
2021,04,25,11,33,245.90
2021,04,25,11,34,252.40
2021,04,25,11,35,259.00
2021,04,25,11,36,264.90
2021,04,25,11,37,273.00
2021,04,25,11,38,281.50
2021,04,25,11,39,290.40
2021,04,25,11,40,299.10
2021,04,25,11,41,302.00
2021,04,25,11,42,315.70
2021,04,25,11,43,327.60
2021,04,25,11,44,336.80
2021,04,25,11,45,342.20
2021,04,25,11,46,344.70
2021,04,25,11,47,345.00
2021,04,25,11,48,351.30
2021,04,25,11,49,354.90
2021,04,25,11,50,359.00
2021,04,25,11,51,359.70
2021,04,25,11,52,356.70
2021,04,25,11,53,355.80
2021,04,25,11,54,359.20
2021,04,25,11,55,360.60
2021,04,25,11,56,361.10
2021,04,25,11,57,357.60
2021,04,25,11,58,355.00
2021,04,25,11,59,355.00
2021,04,25,12,00,354.10
2021,04,25,12,01,351.50
2021,04,25,12,02,347.70
2021,04,25,12,03,344.20
2021,04,25,12,04,341.70
2021,04,25,12,05,342.40
2021,04,25,12,06,345.10
2021,04,25,12,07,350.50
2021,04,25,12,08,357.90
2021,04,25,12,09,365.00
2021,04,25,12,10,366.00
2021,04,25,12,11,370.50
2021,04,25,12,12,375.80
2021,04,25,12,13,385.50
2021,04,25,12,14,397.00
2021,04,25,12,15,406.00
2021,04,25,12,16,405.40
2021,04,25,12,17,403.00
2021,04,25,12,18,404.30
2021,04,25,12,19,411.00
2021,04,25,12,20,420.50
2021,04,25,12,21,435.80
2021,04,25,12,22,440.60
2021,04,25,12,23,417.40
2021,04,25,12,24,399.60
2021,04,25,12,25,389.20
2021,04,25,12,26,387.60
2021,04,25,12,27,395.10
2021,04,25,12,28,407.40
2021,04,25,12,29,419.10
2021,04,25,12,30,422.00
2021,04,25,12,31,413.30
2021,04,25,12,32,411.00
2021,04,25,12,33,389.40
2021,04,25,12,34,368.10
2021,04,25,12,35,352.80
2021,04,25,12,36,335.40
2021,04,25,12,37,330.60
2021,04,25,12,38,335.30
2021,04,25,12,39,327.70
2021,04,25,12,40,319.20
2021,04,25,12,41,312.50
2021,04,25,12,42,316.00
2021,04,25,12,43,326.10
2021,04,25,12,44,345.00
2021,04,25,12,45,345.00
2021,04,25,12,46,345.00
2021,04,25,12,47,341.70
2021,04,25,12,48,332.10
2021,04,25,12,49,320.40
2021,04,25,12,50,317.30
2021,04,25,12,51,331.70
2021,04,25,12,52,364.60
2021,04,25,12,53,393.20
2021,04,25,12,54,418.70
2021,04,25,12,55,452.00
2021,04,25,12,56,463.30
2021,04,25,12,57,457.40
2021,04,25,12,58,464.00
2021,04,25,12,59,464.50
2021,04,25,13,00,475.00
2021,04,25,13,01,474.40
2021,04,25,13,02,469.60
2021,04,25,13,03,459.60
2021,04,25,13,04,448.10
2021,04,25,13,05,435.80
2021,04,25,13,06,426.30
2021,04,25,13,07,416.20
2021,04,25,13,08,410.00
2021,04,25,13,09,405.70
2021,04,25,13,10,409.50
2021,04,25,13,11,429.00
2021,04,25,13,12,432.80
2021,04,25,13,13,433.20
2021,04,25,13,14,454.70
2021,04,25,13,15,478.00
2021,04,25,13,16,477.80
2021,04,25,13,17,458.40
2021,04,25,13,18,432.80
2021,04,25,13,19,439.70
2021,04,25,13,20,471.60
2021,04,25,13,21,510.00
2021,04,25,13,22,487.30
2021,04,25,13,23,493.60
2021,04,25,13,24,510.10
2021,04,25,13,25,518.70
2021,04,25,13,26,497.20
2021,04,25,13,27,476.80
2021,04,25,13,28,452.90
2021,04,25,13,29,430.80
2021,04,25,13,30,419.50
2021,04,25,13,31,411.00
2021,04,25,13,32,417.20
2021,04,25,13,33,430.00
2021,04,25,13,34,444.80
2021,04,25,13,35,450.80
2021,04,25,13,36,439.60
2021,04,25,13,37,427.20
2021,04,25,13,38,429.70
2021,04,25,13,39,449.20
2021,04,25,13,40,483.60
2021,04,25,13,41,489.00
2021,04,25,13,42,516.00
2021,04,25,13,43,519.00
2021,04,25,13,44,525.70
2021,04,25,13,45,527.00
2021,04,25,13,46,527.40
2021,04,25,13,47,531.50
2021,04,25,13,48,536.80
2021,04,25,13,49,545.50
2021,04,25,13,50,534.30
2021,04,25,13,51,517.70
2021,04,25,13,52,500.50
2021,04,25,13,53,510.00
2021,04,25,13,54,530.10
2021,04,25,13,55,547.50
2021,04,25,13,56,535.50
2021,04,25,13,57,503.00
2021,04,25,13,58,452.10
2021,04,25,13,59,387.40
2021,04,25,14,00,348.90
2021,04,25,14,01,324.00
2021,04,25,14,02,318.00
2021,04,25,14,03,333.80
2021,04,25,14,04,355.60
2021,04,25,14,05,385.20
2021,04,25,14,06,424.90
2021,04,25,14,07,407.00
2021,04,25,14,08,413.20
2021,04,25,14,09,478.00
2021,04,25,14,10,484.60
2021,04,25,14,11,523.00
2021,04,25,14,12,515.20
2021,04,25,14,13,502.20
2021,04,25,14,14,547.10
2021,04,25,14,15,528.50
2021,04,25,14,16,524.80
2021,04,25,14,17,545.60
2021,04,25,14,18,575.00
2021,04,25,14,19,575.00
2021,04,25,14,20,575.00
2021,04,25,14,21,565.70
2021,04,25,14,22,536.80
2021,04,25,14,23,486.90
2021,04,25,14,24,428.10
2021,04,25,14,25,405.70
2021,04,25,14,26,425.90
2021,04,25,14,27,431.00
2021,04,25,14,28,524.90
2021,04,25,14,29,536.00
2021,04,25,14,30,611.00
2021,04,25,14,31,677.00
2021,04,25,14,32,673.60
2021,04,25,14,33,639.10
2021,04,25,14,34,617.00
2021,04,25,14,35,617.00
2021,04,25,14,36,617.00
2021,04,25,14,37,507.20
2021,04,25,14,38,257.00
2021,04,25,14,39,266.50
2021,04,25,14,40,262.00
2021,04,25,14,41,269.60
2021,04,25,14,42,283.30
2021,04,25,14,43,315.50
2021,04,25,14,44,338.00
2021,04,25,14,45,338.00
2021,04,25,14,46,338.00
2021,04,25,14,47,338.00
2021,04,25,14,48,338.00
2021,04,25,14,49,338.00
2021,04,25,14,50,535.20
2021,04,25,14,51,570.00
2021,04,25,14,52,570.00
2021,04,25,14,53,570.00
2021,04,25,14,54,341.00
2021,04,25,14,55,389.50
2021,04,25,14,56,826.00
2021,04,25,14,57,825.00
2021,04,25,14,58,821.00
2021,04,25,14,59,823.20
2021,04,25,15,00,830.00
2021,04,25,15,01,830.00
2021,04,25,15,02,833.20
2021,04,25,15,03,838.00
2021,04,25,15,04,704.30
2021,04,25,15,05,527.00
2021,04,25,15,06,543.20
2021,04,25,15,07,564.00
2021,04,25,15,08,561.00
2021,04,25,15,09,561.00
2021,04,25,15,10,561.00
2021,04,25,15,11,561.00
2021,04,25,15,12,774.60
2021,04,25,15,13,828.00
2021,04,25,15,14,587.50
2021,04,25,15,15,545.00
2021,04,25,15,16,545.00
2021,04,25,15,17,545.00
2021,04,25,15,18,567.50
2021,04,25,15,19,755.50
2021,04,25,15,20,659.10
2021,04,25,15,21,571.00
2021,04,25,15,22,528.70
2021,04,25,15,23,566.00
2021,04,25,15,24,572.30
2021,04,25,15,25,571.00
2021,04,25,15,26,599.80
2021,04,25,15,27,641.70
2021,04,25,15,28,634.00
2021,04,25,15,29,624.40
2021,04,25,15,30,625.20
2021,04,25,15,31,614.20
2021,04,25,15,32,588.30
2021,04,25,15,33,554.20
2021,04,25,15,34,525.50
2021,04,25,15,35,508.60
2021,04,25,15,36,517.90
2021,04,25,15,37,520.00
2021,04,25,15,38,540.00
2021,04,25,15,39,515.00
2021,04,25,15,40,527.00
2021,04,25,15,41,524.70
2021,04,25,15,42,513.60
2021,04,25,15,43,520.40
2021,04,25,15,44,535.30
2021,04,25,15,45,538.20
2021,04,25,15,46,535.10
2021,04,25,15,47,523.20
2021,04,25,15,48,479.80
2021,04,25,15,49,478.60
2021,04,25,15,50,508.00
2021,04,25,15,51,508.00
2021,04,25,15,52,508.00
2021,04,25,15,53,568.00
2021,04,25,15,54,601.50
2021,04,25,15,55,596.60
2021,04,25,15,56,581.30
2021,04,25,15,57,575.00
2021,04,25,15,58,575.00
2021,04,25,15,59,456.90
2021,04,25,16,00,359.10
2021,04,25,16,01,324.80
2021,04,25,16,02,309.60
2021,04,25,16,03,301.40
2021,04,25,16,04,311.80
2021,04,25,16,05,353.20
2021,04,25,16,06,394.00
2021,04,25,16,07,414.00
2021,04,25,16,08,492.80
2021,04,25,16,09,491.10
2021,04,25,16,10,504.40
2021,04,25,16,11,518.00
2021,04,25,16,12,512.10
2021,04,25,16,13,505.80
2021,04,25,16,14,503.00
2021,04,25,16,15,483.80
2021,04,25,16,16,448.30
2021,04,25,16,17,447.80
2021,04,25,16,18,440.80
2021,04,25,16,19,449.50
2021,04,25,16,20,415.00
2021,04,25,16,21,397.80
2021,04,25,16,22,386.80
2021,04,25,16,23,368.90
2021,04,25,16,24,359.80
2021,04,25,16,25,362.00
2021,04,25,16,26,356.50
2021,04,25,16,27,345.30
2021,04,25,16,28,336.50
2021,04,25,16,29,319.20
2021,04,25,16,30,300.60
2021,04,25,16,31,282.20
2021,04,25,16,32,266.20
2021,04,25,16,33,249.10
2021,04,25,16,34,239.00
2021,04,25,16,35,239.00
2021,04,25,16,36,239.00
2021,04,25,16,37,249.00
2021,04,25,16,38,266.40
2021,04,25,16,39,280.90
2021,04,25,16,40,291.00
2021,04,25,16,41,300.90
2021,04,25,16,42,305.50
2021,04,25,16,43,308.20
2021,04,25,16,44,308.20
2021,04,25,16,45,308.00
2021,04,25,16,46,308.00
2021,04,25,16,47,314.30
2021,04,25,16,48,327.40
2021,04,25,16,49,333.70
2021,04,25,16,50,328.30
2021,04,25,16,51,321.40
2021,04,25,16,52,316.60
2021,04,25,16,53,311.80
2021,04,25,16,54,315.80
2021,04,25,16,55,313.20
2021,04,25,16,56,299.20
2021,04,25,16,57,292.50
2021,04,25,16,58,289.20
2021,04,25,16,59,288.00
2021,04,25,17,00,289.00
2021,04,25,17,01,288.90
2021,04,25,17,02,285.10
2021,04,25,17,03,280.00
2021,04,25,17,04,276.70
2021,04,25,17,05,281.00
2021,04,25,17,06,284.60
2021,04,25,17,07,280.40
2021,04,25,17,08,273.00
2021,04,25,17,09,271.10
2021,04,25,17,10,271.00
2021,04,25,17,11,262.50
2021,04,25,17,12,258.00